1512972000.22,37458,2.31,71526.8,-6.69,-7.91,-7.95,0,*50
1512972001.44,37459,2.31,71540.8,-6.73,-7.95,-8.17,0,*5B
1512972002.64,37460,2.31,71550.3,-6.69,-8.29,-8.45,0,*55
1512972003.86,37461,2.38,71568.5,-6.69,-8.29,-8.51,0,*51
1512972005.09,37462,2.31,71528.3,-6.73,-8.41,-8.51,0,*57
1512972006.28,37463,2.38,71562.8,-6.73,-8.33,-8.33,0,*57
1512972007.48,37464,2.31,71532.3,-6.73,-8.17,-8.17,0,*50
1512972008.72,37465,2.38,71542.0,-6.73,-8.03,-8.03,0,*51
1512972009.98,37466,2.38,71538.8,-6.73,-8.03,-8.07,0,*56
1512972011.23,37467,2.31,71554.8,-6.73,-8.03,-8.07,0,*57
1512972012.47,37468,2.31,71528.3,-6.69,-8.03,-8.03,0,*57
1512972013.73,37469,2.38,71550.5,-6.73,-8.07,-8.07,0,*5D
1512972014.93,37470,2.31,71510.0,-6.73,-8.17,-8.17,0,*55
1512972016.13,37471,2.38,71528.8,-6.69,-8.21,-8.21,0,*5F
1512972017.34,37472,2.31,71552.0,-6.73,-8.21,-8.21,0,*57
1512972018.54,37473,2.31,71558.0,-6.73,-8.17,-8.17,0,*56
1512972019.74,37474,2.31,71576.8,-6.69,-8.17,-8.21,0,*5F
1512972020.93,37475,2.31,71582.8,-6.73,-8.21,-8.29,0,*58
1512972022.14,37476,2.38,71586.0,-6.73,-8.29,-8.21,0,*5B
1512972023.34,37477,2.31,71580.8,-6.73,-8.29,-8.21,0,*5A
1512972024.53,37478,2.31,71576.8,-6.73,-8.21,-8.29,0,*55
1512972025.73,37479,2.31,71604.0,-6.73,-8.29,-8.29,0,*5C
1512972026.96,37480,2.31,71610.3,-6.75,-8.25,-8.21,0,*58
1512972028.18,37481,2.31,71604.5,-6.75,-8.33,-8.25,0,*5A
1512972029.39,37482,2.31,71616.8,-6.75,-8.33,-8.33,0,*5E
1512972030.61,37483,2.31,71600.8,-6.75,-8.33,-8.33,0,*5F
1512972031.89,37484,2.31,71598.8,-6.75,-8.11,-8.11,0,*58
1512972033.12,37485,2.31,71584.3,-6.73,-8.17,-8.07,0,*5E
1512972034.32,37486,2.31,71544.8,-6.73,-8.29,-8.29,0,*5C
1512972035.52,37487,2.31,71580.8,-6.73,-8.41,-8.33,0,*58
1512972036.71,37488,2.31,71564.3,-6.73,-8.29,-8.29,0,*52
1512972037.91,37489,2.31,71570.3,-6.73,-8.21,-8.29,0,*5B
1512972039.11,37490,2.31,71562.5,-6.73,-8.29,-8.29,0,*5B
1512972040.33,37491,2.31,71566.3,-6.75,-8.37,-8.33,0,*58
1512972041.53,37492,2.31,71584.8,-6.73,-8.33,-8.21,0,*5A
1512972042.73,37493,2.31,71586.3,-6.73,-8.29,-8.29,0,*58
1512972043.94,37494,2.31,71594.8,-6.75,-8.33,-8.33,0,*59
1512972045.17,37495,2.31,71608.3,-6.75,-8.25,-8.45,0,*5E
1512972046.39,37496,2.31,71592.3,-6.75,-8.37,-8.63,0,*5A
1512972047.61,37497,2.31,71580.5,-6.75,-8.37,-8.67,0,*5F
1512972048.86,37498,2.31,71598.3,-6.75,-8.37,-8.81,0,*58
1512972050.09,37499,2.31,71594.8,-6.75,-8.37,-8.93,0,*5A
1512972051.31,37500,2.31,71548.8,-6.75,-8.67,-9.19,0,*5D
1512972052.54,37501,2.38,71528.0,-6.75,-9.05,-9.31,0,*53
1512972053.76,37502,2.38,71542.3,-6.75,-8.63,-8.67,0,*53
1512972055.01,37503,2.38,71544.0,-6.75,-8.37,-8.11,0,*52
1512972056.26,37504,2.31,71548.5,-6.73,-8.07,-7.95,0,*53
1512972057.51,37505,2.31,71560.3,-6.73,-7.95,-7.91,0,*52
1512972058.74,37506,2.38,71592.5,-6.73,-7.95,-7.83,0,*52
1512972059.99,37507,2.38,71596.0,-6.73,-7.69,-7.69,0,*54
1512972061.23,37508,2.31,71598.8,-6.69,-7.69,-7.69,0,*50
1512972062.49,37509,2.31,71596.0,-6.73,-7.77,-7.77,0,*5A
1512972063.74,37510,2.31,71610.3,-6.73,-7.69,-7.77,0,*5D
1512972064.99,37511,2.38,71626.5,-6.69,-7.69,-7.77,0,*57
1512972066.24,37512,2.31,71584.3,-6.69,-7.77,-7.77,0,*5B
1512972067.47,37513,2.31,71556.3,-6.73,-7.77,-7.83,0,*5A
1512972068.69,37514,2.31,71546.3,-6.69,-8.03,-8.17,0,*58
1512972069.88,37515,2.31,71538.8,-6.73,-8.21,-8.17,0,*52
1512972071.08,37516,2.31,71494.5,-6.73,-8.29,-8.29,0,*54
1512972072.28,37517,2.31,71486.5,-6.69,-8.29,-8.29,0,*5E
1512972073.47,37518,2.31,71508.8,-6.73,-8.29,-8.29,0,*5A
1512972074.67,37519,2.31,71506.5,-6.73,-8.29,-8.33,0,*50
1512972075.86,37520,2.31,71486.3,-6.73,-8.33,-8.41,0,*54
1512972077.06,37521,2.31,71470.0,-6.73,-8.41,-8.41,0,*50
1512972078.29,37522,2.31,71494.3,-6.77,-8.55,-8.51,0,*53
1512972079.5,37523,2.31,71516.0,-6.75,-8.33,-8.33,0,*54
1512972080.79,37524,2.31,71504.3,-6.75,-8.07,-8.11,0,*54
1512972081.98,37525,2.31,71484.3,-6.77,-8.33,-8.37,0,*54
1512972083.2,37526,2.31,71426.0,-6.75,-8.45,-8.55,0,*50
1512972084.45,37527,2.31,71530.5,-6.75,-8.37,-8.81,0,*5D
1512972085.68,37528,2.31,71482.3,-6.75,-8.37,-9.19,0,*52
1512972086.91,37529,2.31,71440.8,-6.77,-9.15,-9.97,0,*56
1512972088.16,37530,2.31,71494.5,-6.75,-9.19,-9.57,0,*5C
1512972089.39,37531,2.31,71526.3,-6.75,-9.05,-9.05,0,*57
1512972090.58,37532,2.31,71556.8,-6.77,-8.75,-8.63,0,*51
1512972091.82,37533,2.31,71518.0,-6.75,-8.45,-8.37,0,*50
1512972093.04,37534,2.38,71556.3,-6.75,-8.21,-8.25,0,*56
1512972094.26,37535,2.31,71554.3,-6.77,-8.11,-8.25,0,*56
1512972095.49,37536,2.31,71518.0,-6.75,-8.21,-8.25,0,*54
1512972096.71,37537,2.31,71548.3,-6.77,-8.11,-8.21,0,*50
1512972097.99,37538,2.31,71510.8,-6.75,-7.99,-8.07,0,*56
1512972099.27,37539,2.31,71554.5,-6.75,-7.95,-7.99,0,*53
1512972100.47,37540,2.31,71584.3,-6.77,-7.87,-7.87,0,*53
1512972101.69,37541,2.31,71542.8,-6.77,-7.87,-7.99,0,*5D
1512972102.94,37542,2.31,71582.8,-6.75,-7.87,-7.95,0,*50
1512972104.21,37543,2.31,71598.8,-6.75,-7.95,-7.95,0,*52
1512972105.46,37544,2.31,71578.0,-6.77,-7.95,-7.95,0,*57
1512972106.74,37545,2.31,71528.8,-6.75,-7.95,-8.07,0,*50
1512972107.99,37546,2.31,71526.0,-6.77,-7.99,-8.07,0,*5D
1512972109.25,37547,2.31,71514.3,-6.77,-7.99,-8.07,0,*5C
1512972110.49,37548,2.31,71542.0,-6.77,-7.99,-7.99,0,*5B
1512972111.74,37549,2.31,71590.3,-6.77,-8.07,-7.99,0,*52
1512972113.0,37550,2.31,71612.0,-6.75,-7.87,-7.99,0,*5F
1512972114.22,37551,2.31,71540.5,-6.77,-7.99,-8.25,0,*5B
1512972115.43,37552,2.31,71550.8,-6.77,-8.11,-8.55,0,*50
1512972116.66,37553,2.31,71574.0,-6.75,-8.45,-9.05,0,*56
1512972117.89,37554,2.31,71614.5,-6.77,-8.89,-9.49,0,*5B
1512972119.12,37555,2.31,71620.8,-6.75,-9.19,-9.31,0,*5F
1512972120.32,37556,2.31,71622.8,-6.77,-9.05,-8.89,0,*51
1512972121.55,37557,2.31,71626.8,-6.75,-8.63,-8.45,0,*53
1512972122.75,37558,2.31,71662.3,-6.77,-8.37,-8.25,0,*59
1512972124.0,37559,2.38,71666.5,-6.75,-7.99,-7.87,0,*56
1512972125.25,37560,2.31,71640.5,-6.77,-7.95,-8.11,0,*52
1512972126.47,37561,2.31,71642.8,-6.75,-7.87,-8.33,0,*52
1512972127.7,37562,2.31,71630.0,-6.75,-7.83,-8.25,0,*52
1512972128.94,37563,2.31,71616.0,-6.75,-7.95,-8.33,0,*53
1512972130.2,37564,2.31,71610.3,-6.75,-8.11,-8.37,0,*53
1512972131.45,37565,2.31,71594.8,-6.75,-8.11,-8.25,0,*51
1512972132.65,37566,2.31,71584.8,-6.77,-7.87,-7.87,0,*57
1512972133.93,37567,2.38,71560.3,-6.75,-7.61,-7.61,0,*54
1512972135.21,37568,2.31,71590.8,-6.75,-7.69,-7.61,0,*53
1512972136.49,37569,2.31,71588.8,-6.75,-7.69,-7.61,0,*52
1512972137.77,37570,2.31,71580.8,-6.75,-7.69,-7.61,0,*5A
1512972139.05,37571,2.31,71582.3,-6.75,-7.69,-7.61,0,*5B
1512972140.32,37572,2.38,71628.8,-6.75,-7.69,-7.69,0,*50
1512972141.59,37573,2.31,71636.0,-6.75,-7.69,-7.69,0,*51
1512972142.87,37574,2.38,71634.8,-6.75,-7.69,-7.69,0,*56
1512972144.12,37575,2.31,71568.5,-6.75,-7.83,-7.73,0,*58
1512972145.38,37576,2.31,71574.3,-6.75,-7.73,-7.83,0,*5B
1512972146.66,37577,2.31,71560.3,-6.75,-7.73,-7.73,0,*55
1512972147.92,37578,2.31,71540.5,-6.73,-7.77,-7.77,0,*5C
1512972149.15,37579,2.31,71554.8,-6.75,-7.83,-7.87,0,*5F
1512972150.38,37580,2.31,71598.8,-6.75,-7.87,-7.87,0,*5D
1512972151.65,37581,2.38,71524.0,-6.75,-7.69,-7.73,0,*57
1512972152.92,37582,2.31,71556.0,-6.75,-7.69,-7.69,0,*5F
1512972154.18,37583,2.31,71508.3,-6.75,-7.73,-7.83,0,*51
1512972155.47,37584,2.31,71514.3,-6.75,-7.73,-7.73,0,*59
1512972156.74,37585,2.31,71526.0,-6.75,-7.69,-7.73,0,*53
1512972158.03,37586,2.31,71560.3,-6.75,-7.73,-7.73,0,*5B
1512972159.26,37587,2.31,71602.8,-6.75,-7.83,-7.83,0,*5A
1512972160.52,37588,2.31,71584.3,-6.75,-7.73,-7.83,0,*5A
1512972161.75,37589,2.31,71602.5,-6.73,-7.77,-7.83,0,*59
1512972163.0,37590,2.31,71630.8,-6.73,-7.77,-7.69,0,*55
1512972164.25,37591,2.31,71662.3,-6.73,-7.69,-7.77,0,*54
1512972165.5,37592,2.31,71638.8,-6.73,-7.69,-7.65,0,*54
1512972166.75,37593,2.31,71644.3,-6.73,-7.69,-7.77,0,*56
1512972167.98,37594,2.31,71606.3,-6.73,-7.83,-7.77,0,*55
1512972169.21,37595,2.31,71602.0,-6.73,-7.77,-7.83,0,*54
1512972170.44,37596,2.31,71546.0,-6.73,-7.83,-7.77,0,*57
1512972171.69,37597,2.31,71504.5,-6.73,-7.77,-7.77,0,*5D
1512972172.95,37598,2.31,71500.5,-6.73,-7.77,-7.77,0,*52
1512972174.2,37599,2.38,71528.0,-6.73,-7.69,-7.69,0,*53
1512972175.45,37600,2.31,71556.8,-6.73,-7.57,-7.57,0,*50
1512972176.74,37601,2.31,71556.0,-6.75,-7.57,-7.61,0,*52
1512972178.02,37602,2.31,71500.5,-6.75,-7.61,-7.69,0,*5C
1512972179.27,37603,2.38,71474.0,-6.73,-7.91,-7.77,0,*5B
1512972180.49,37604,2.31,71478.5,-6.73,-7.83,-7.91,0,*57
1512972181.7,37605,2.31,71534.8,-6.73,-7.83,-7.83,0,*55
1512972182.95,37606,2.31,71560.8,-6.73,-7.91,-7.91,0,*56
1512972184.15,37607,2.31,71580.8,-6.73,-7.83,-7.83,0,*57
1512972185.4,37608,2.31,71568.0,-6.69,-7.91,-7.91,0,*53
1512972186.64,37609,2.31,71586.0,-6.69,-7.95,-7.95,0,*52
1512972187.85,37610,2.31,71590.8,-6.69,-7.83,-7.83,0,*5A
1512972189.09,37611,2.31,71604.0,-6.73,-7.69,-7.69,0,*50
1512972190.34,37612,2.31,71634.5,-6.73,-7.69,-7.69,0,*53
1512972191.6,37613,2.31,71630.5,-6.73,-7.65,-7.65,0,*52
1512972192.85,37614,2.31,71622.0,-6.73,-7.69,-7.65,0,*59
1512972194.1,37615,2.31,71616.3,-6.73,-7.69,-7.77,0,*5B
1512972195.35,37616,2.31,71610.0,-6.73,-7.69,-7.77,0,*58
1512972196.6,37617,2.31,71608.5,-6.69,-7.69,-7.91,0,*5A
1512972197.85,37618,2.31,71598.5,-6.69,-7.69,-7.95,0,*51
1512972199.09,37619,2.31,71606.0,-6.73,-7.69,-8.03,0,*5B
1512972200.32,37620,2.31,71634.5,-6.73,-7.91,-8.21,0,*56
1512972201.54,37621,2.31,71628.3,-6.69,-7.77,-8.17,0,*51
1512972202.76,37622,2.31,71598.8,-6.69,-7.77,-8.17,0,*52
1512972203.98,37623,2.31,71556.5,-6.73,-7.91,-8.29,0,*5D
1512972205.17,37624,2.31,71562.8,-6.69,-7.83,-8.17,0,*5F
1512972206.4,37625,2.31,71576.5,-6.69,-7.69,-7.83,0,*58
1512972207.65,37626,2.31,71584.5,-6.69,-7.77,-7.69,0,*50
1512972208.9,37627,2.31,71582.8,-6.69,-7.57,-7.57,0,*5E
1512972210.1,37628,2.31,71576.5,-6.69,-7.53,-7.53,0,*51
1512972211.29,37629,2.31,71560.0,-6.69,-7.53,-7.53,0,*50
1512972212.52,37630,2.31,71556.8,-6.69,-7.35,-7.23,0,*5F
1512972213.77,37631,2.31,71570.3,-6.69,-7.35,-7.35,0,*59
1512972215.01,37632,2.31,71580.8,-6.69,-7.39,-7.35,0,*56
1512972216.29,37633,2.31,71564.5,-6.67,-7.43,-7.43,0,*55
1512972217.51,37634,2.31,71570.3,-6.69,-7.49,-7.39,0,*5B
1512972218.8,37635,2.31,71576.3,-6.67,-7.43,-7.43,0,*53
1512972220.02,37636,2.31,71576.8,-6.67,-7.49,-7.49,0,*50
1512972221.24,37637,2.31,71580.3,-6.65,-7.53,-7.61,0,*52
1512972222.44,37638,2.31,71580.0,-6.65,-7.53,-7.53,0,*5C
1512972223.72,37639,2.31,71566.0,-6.67,-7.61,-7.61,0,*5F
1512972225.0,37640,2.31,71568.0,-6.67,-7.61,-7.61,0,*51
1512972226.26,37641,2.31,71566.5,-6.65,-7.61,-7.61,0,*52
1512972227.51,37642,2.31,71542.8,-6.65,-7.73,-7.65,0,*56
1512972228.79,37643,2.31,71552.3,-6.67,-7.73,-7.65,0,*55
1512972230.02,37644,2.31,71560.3,-6.67,-7.87,-7.87,0,*55
1512972231.3,37645,2.31,71558.8,-6.67,-7.77,-7.77,0,*54
1512972232.55,37646,2.31,71574.5,-6.67,-7.77,-7.87,0,*58
1512972233.8,37647,2.31,71550.3,-6.67,-7.87,-7.91,0,*51
1512972235.03,37648,2.31,71582.5,-6.67,-7.87,-7.87,0,*59
1512972236.27,37649,2.31,71600.0,-6.69,-7.91,-7.91,0,*56
1512972237.52,37650,2.31,71544.8,-6.69,-7.91,-7.91,0,*5E
1512972238.76,37651,2.31,71572.3,-6.69,-8.03,-8.03,0,*5F
1512972240.04,37652,2.31,71616.0,-6.67,-8.11,-7.99,0,*5D
1512972241.27,37653,2.31,71608.0,-6.69,-8.29,-8.07,0,*51
1512972242.49,37654,2.31,71592.8,-6.69,-8.17,-8.11,0,*5C
1512972243.72,37655,2.31,71574.3,-6.69,-8.29,-8.07,0,*57
1512972244.92,37656,2.31,71562.0,-6.69,-8.17,-8.17,0,*58
1512972246.17,37657,2.31,71532.8,-6.67,-8.17,-8.11,0,*51
1512972247.37,37658,2.31,71532.5,-6.69,-8.29,-8.21,0,*5E
1512972248.56,37659,2.31,71548.5,-6.73,-8.29,-8.29,0,*5C
1512972249.76,37660,2.31,71584.8,-6.69,-8.29,-8.17,0,*50
1512972250.99,37661,2.31,71590.3,-6.69,-8.29,-8.07,0,*50
1512972252.24,37662,2.31,71572.5,-6.69,-8.07,-8.03,0,*5B
1512972253.48,37663,2.31,71610.8,-6.69,-7.95,-7.95,0,*5E
1512972254.71,37664,2.31,71612.5,-6.69,-7.91,-7.83,0,*5A
1512972255.95,37665,2.31,71630.0,-6.69,-7.77,-7.77,0,*58
1512972257.2,37666,2.31,71612.0,-6.69,-7.69,-7.69,0,*5B
1512972258.45,37667,2.31,71608.0,-6.69,-7.69,-7.69,0,*5A
1512972259.69,37668,2.31,71598.8,-6.67,-7.65,-7.53,0,*5E
1512972260.95,37669,2.31,71586.8,-6.67,-7.53,-7.61,0,*5B
1512972262.2,37670,2.31,71584.5,-6.67,-7.53,-7.61,0,*53
1512972263.48,37671,2.31,71590.5,-6.67,-7.73,-7.73,0,*53
1512972264.76,37672,2.31,71554.0,-6.67,-7.65,-7.73,0,*57
1512972266.05,37673,2.31,71544.3,-6.67,-7.73,-7.77,0,*55
1512972267.28,37674,2.31,71566.5,-6.67,-7.87,-7.87,0,*56
1512972268.52,37675,2.31,71578.5,-6.69,-7.91,-8.03,0,*5D
1512972269.74,37676,2.31,71584.3,-6.69,-7.83,-7.95,0,*5D
1512972270.98,37677,2.31,71598.5,-6.69,-7.77,-7.95,0,*57
1512972272.22,37678,2.31,71604.0,-6.69,-7.91,-8.03,0,*50
1512972273.47,37679,2.31,71594.3,-6.67,-7.87,-8.03,0,*58
1512972274.72,37680,2.31,71546.5,-6.67,-7.87,-7.99,0,*52
1512972275.99,37681,2.31,71568.5,-6.67,-7.91,-7.91,0,*5C
1512972277.24,37682,2.31,71560.5,-6.67,-7.87,-7.99,0,*50
1512972278.47,37683,2.31,71508.5,-6.67,-8.25,-8.29,0,*52
1512972279.66,37684,2.31,71440.3,-6.69,-8.29,-8.45,0,*5D
1512972280.91,37685,2.31,71406.3,-6.67,-8.45,-8.81,0,*50
1512972282.13,37686,2.31,71478.5,-6.67,-8.55,-8.67,0,*5A
1512972283.35,37687,2.31,71542.8,-6.67,-8.29,-8.55,0,*51
1512972284.54,37688,2.31,71582.5,-6.69,-8.33,-8.45,0,*5A
1512972285.74,37689,2.31,71612.5,-6.73,-8.29,-8.59,0,*56
1512972286.94,37690,2.31,71630.3,-6.73,-8.29,-8.45,0,*53
1512972288.16,37691,2.31,71626.5,-6.69,-8.29,-8.51,0,*5C
1512972289.36,37692,2.31,71614.8,-6.73,-8.41,-8.63,0,*5B
1512972290.58,37693,2.31,71628.3,-6.73,-8.51,-8.75,0,*5C
1512972291.79,37694,2.31,71594.3,-6.73,-8.63,-8.85,0,*55
1512972293.0,37695,2.31,71600.0,-6.73,-8.85,-8.85,0,*5C
1512972294.23,37696,2.31,71590.0,-6.73,-8.51,-8.63,0,*5E
1512972295.42,37697,2.31,71612.0,-6.73,-8.33,-8.45,0,*5F
1512972296.62,37698,2.31,71630.3,-6.73,-8.17,-8.29,0,*5C
1512972297.82,37699,2.31,71600.5,-6.73,-8.21,-8.21,0,*50
1512972299.02,37700,2.31,71572.3,-6.73,-8.33,-8.29,0,*5A
1512972300.24,37701,2.31,71614.5,-6.75,-8.33,-8.25,0,*51
1512972301.45,37702,2.31,71558.8,-6.75,-8.33,-8.33,0,*55
1512972302.65,37703,2.31,71514.0,-6.69,-8.45,-8.29,0,*53
1512972303.9,37704,2.31,71558.0,-6.75,-8.25,-8.11,0,*54
1512972305.17,37705,2.31,71692.3,-6.75,-7.95,-7.95,0,*52
1512972306.46,37706,2.31,71556.5,-6.75,-7.61,-7.61,0,*51
1512972307.69,37707,2.31,71580.3,-6.75,-7.83,-7.83,0,*50
1512972308.94,37708,2.31,71588.3,-6.75,-7.83,-7.95,0,*58
1512972310.19,37709,2.31,71598.3,-6.73,-7.77,-7.91,0,*50
1512972311.43,37710,2.31,71600.3,-6.69,-7.69,-8.03,0,*58
1512972312.65,37711,2.31,71604.8,-6.73,-7.69,-8.29,0,*5A
1512972313.88,37712,2.31,71598.0,-6.73,-7.77,-8.41,0,*58
1512972315.1,37713,2.31,71618.8,-6.73,-8.07,-8.71,0,*52
1512972316.3,37714,2.31,71600.3,-6.73,-8.17,-8.75,0,*50
1512972317.51,37715,2.31,71620.3,-6.73,-8.41,-8.89,0,*51
1512972318.76,37716,2.31,71638.3,-6.73,-8.51,-8.51,0,*56
1512972319.96,37717,2.31,71628.8,-6.69,-8.45,-8.29,0,*56
1512972321.18,37718,2.31,71604.8,-6.69,-8.29,-7.95,0,*5B
1512972322.43,37719,2.31,71590.3,-6.73,-7.95,-7.69,0,*5A
1512972323.65,37720,2.31,71578.0,-6.69,-7.83,-7.57,0,*51
1512972324.88,37721,2.31,71600.3,-6.69,-7.83,-7.65,0,*51
1512972326.1,37722,2.31,71622.5,-6.69,-7.83,-7.65,0,*52
1512972327.35,37723,2.31,71618.0,-6.69,-7.69,-7.57,0,*56
1512972328.6,37724,2.31,71620.8,-6.69,-7.69,-7.57,0,*51
1512972329.85,37725,2.31,71610.0,-6.69,-7.65,-7.65,0,*5D
1512972331.11,37726,2.31,71606.8,-6.69,-7.65,-7.65,0,*5E
1512972332.36,37727,2.31,71604.0,-6.69,-7.65,-7.57,0,*5E
1512972333.61,37728,2.31,71606.5,-6.69,-7.69,-7.65,0,*5C
1512972334.83,37729,2.31,71586.0,-6.69,-7.83,-7.69,0,*55
1512972336.03,37730,2.31,71522.3,-6.69,-7.83,-7.83,0,*59
1512972337.27,37731,2.31,71496.3,-6.69,-7.95,-7.95,0,*58
1512972338.52,37732,2.31,71536.3,-6.69,-7.95,-7.95,0,*5B
1512972339.74,37733,2.31,71546.0,-6.69,-7.91,-7.83,0,*59
1512972340.99,37734,2.31,71572.3,-6.69,-7.69,-7.69,0,*5D
1512972342.24,37735,2.31,71584.3,-6.69,-7.77,-7.77,0,*5C
1512972343.49,37736,2.31,71604.5,-6.73,-7.77,-7.77,0,*54
1512972344.74,37737,2.31,71608.0,-6.73,-7.77,-7.77,0,*55
1512972345.95,37738,2.31,71622.0,-6.69,-7.83,-7.83,0,*51
1512972347.15,37739,2.31,71636.5,-6.73,-7.83,-7.83,0,*5B
1512972348.36,37740,2.31,71656.3,-6.69,-7.83,-7.83,0,*5E
1512972349.6,37741,2.31,71628.0,-6.69,-7.69,-7.77,0,*50
1512972350.83,37742,2.31,71614.3,-6.69,-7.83,-7.91,0,*5F
1512972352.07,37743,2.31,71596.5,-6.69,-7.91,-7.95,0,*59
1512972353.32,37744,2.31,71578.0,-6.69,-7.95,-8.03,0,*5A
1512972354.51,37745,2.31,71566.0,-6.69,-8.17,-8.17,0,*5B
1512972355.74,37746,2.31,71548.3,-6.69,-8.17,-8.07,0,*59
1512972357.0,37747,2.31,71558.3,-6.69,-8.07,-8.07,0,*59
1512972358.24,37748,2.31,71572.5,-6.73,-8.17,-8.07,0,*5C
1512972359.5,37749,2.31,71580.5,-6.67,-8.03,-8.03,0,*59
1512972360.73,37750,2.31,71578.5,-6.69,-8.07,-8.17,0,*5E
1512972361.95,37751,2.31,71580.3,-6.69,-8.03,-8.17,0,*5B
1512972363.17,37752,2.31,71594.5,-6.69,-8.07,-8.17,0,*5C
1512972364.42,37753,2.31,71596.0,-6.69,-8.03,-8.07,0,*58
1512972365.67,37754,2.31,71608.8,-6.69,-7.95,-7.95,0,*5B
1512972366.91,37755,2.31,71610.3,-6.69,-7.95,-7.95,0,*5A
1512972368.14,37756,2.31,71630.5,-6.73,-7.83,-7.95,0,*55
1512972369.36,37757,2.31,71640.0,-6.69,-7.83,-8.03,0,*5F
1512972370.6,37758,2.31,71642.5,-6.69,-7.91,-8.03,0,*53
1512972371.82,37759,2.31,71628.3,-6.69,-8.03,-8.17,0,*53
1512972373.04,37760,2.31,71626.8,-6.69,-8.07,-8.29,0,*50
1512972374.23,37761,2.31,71620.8,-6.69,-8.21,-8.29,0,*55
1512972375.46,37762,2.31,71628.0,-6.67,-8.25,-8.59,0,*5B
1512972376.66,37763,2.31,71642.0,-6.69,-8.59,-9.01,0,*53
1512972377.89,37764,2.31,71580.3,-6.69,-8.71,-9.15,0,*5B
1512972379.14,37765,2.31,71504.0,-6.67,-8.93,-9.49,0,*51
1512972380.37,37766,2.31,71400.8,-6.67,-9.19,-9.79,0,*52
1512972381.62,37767,2.31,71378.8,-6.67,-9.61,-9.89,0,*53
1512972382.85,37768,2.31,71376.5,-6.67,-9.75,-9.79,0,*56
1512972384.07,37769,2.31,71432.0,-6.69,-9.79,-9.57,0,*59
1512972385.29,37770,2.31,71488.5,-6.73,-9.53,-9.31,0,*52
1512972386.51,37771,2.31,71572.0,-6.69,-9.41,-9.31,0,*5B
1512972387.74,37772,2.31,71608.8,-6.69,-9.11,-9.27,0,*5A
1512972388.96,37773,2.31,71626.8,-6.69,-9.15,-9.31,0,*58
1512972390.2,37774,2.31,71630.8,-6.73,-9.15,-9.23,0,*57
1512972391.4,37775,2.31,71632.0,-6.69,-9.01,-9.27,0,*5C
1512972392.6,37776,2.31,71672.0,-6.69,-8.97,-9.23,0,*55
1512972393.83,37777,2.31,71634.3,-6.69,-9.11,-9.27,0,*5F
1512972395.06,37778,2.31,71634.8,-6.69,-9.45,-9.67,0,*55
1512972396.27,37779,2.31,71656.0,-6.69,-9.83,-9.97,0,*51
1512972397.48,37780,2.31,71618.8,-6.69,-10.27,-10.09,0,*5E
1512972398.69,37781,2.31,71618.3,-6.73,-10.19,-9.97,0,*66
1512972399.9,37782,2.31,71610.5,-6.69,-10.27,-10.09,0,*5C
1512972401.14,37783,2.31,71610.3,-6.69,-10.41,-10.23,0,*55
1512972402.36,37784,2.31,71608.8,-6.73,-10.35,-10.05,0,*5E
1512972403.56,37785,2.31,71616.5,-6.69,-10.27,-9.79,0,*64
1512972404.76,37786,2.31,71614.3,-6.73,-9.97,-9.31,0,*53
1512972406.0,37787,2.31,71622.8,-6.73,-9.57,-9.11,0,*5C
1512972407.21,37788,2.31,71616.8,-6.73,-9.31,-8.85,0,*5F
1512972408.41,37789,2.31,71626.3,-6.73,-9.01,-8.59,0,*5C
1512972409.64,37790,2.31,71644.3,-6.69,-9.01,-8.51,0,*57
1512972410.84,37791,2.31,71636.8,-6.69,-8.63,-8.33,0,*57
1512972412.04,37792,2.31,71618.8,-6.73,-8.45,-8.41,0,*5E
1512972413.23,37793,2.31,71636.8,-6.73,-8.59,-8.63,0,*52
1512972414.43,37794,2.31,71626.8,-6.73,-8.59,-8.63,0,*55
1512972415.66,37795,2.31,71606.5,-6.73,-8.51,-8.63,0,*5C
1512972416.85,37796,2.31,71616.8,-6.69,-8.75,-8.75,0,*55
1512972418.06,37797,2.31,71622.3,-6.69,-8.89,-9.01,0,*55
1512972419.32,37798,2.31,71644.0,-6.73,-9.15,-9.15,0,*50
1512972420.51,37799,2.31,71648.0,-6.69,-9.31,-9.23,0,*59
1512972421.74,37800,2.31,71634.0,-6.69,-9.41,-9.23,0,*51
1512972422.96,37801,2.31,71632.5,-6.73,-9.53,-9.31,0,*5B
1512972424.2,37802,2.31,71628.5,-6.69,-9.45,-9.15,0,*52
1512972425.41,37803,2.31,71622.5,-6.73,-9.23,-8.97,0,*53
1512972426.61,37804,2.31,71626.5,-6.73,-8.89,-8.75,0,*59
1512972427.81,37805,2.31,71640.5,-6.73,-8.71,-8.71,0,*5B
1512972429.01,37806,2.31,71616.5,-6.69,-8.59,-8.75,0,*5D
1512972430.22,37807,2.31,71608.8,-6.73,-8.63,-8.85,0,*51
1512972431.43,37808,2.31,71612.0,-6.73,-8.71,-8.85,0,*5D
1512972432.62,37809,2.31,71610.5,-6.73,-8.59,-8.71,0,*5D
1512972433.82,37810,2.31,71592.8,-6.73,-8.63,-8.71,0,*5C
1512972435.03,37811,2.31,71588.3,-6.73,-8.75,-8.85,0,*51
1512972436.24,37812,2.31,71586.3,-6.73,-8.85,-8.75,0,*52
1512972437.45,37813,2.31,71594.0,-6.73,-8.89,-8.89,0,*5C
1512972438.67,37814,2.31,71590.5,-6.73,-8.97,-9.11,0,*54
1512972439.91,37815,2.31,71604.3,-6.75,-9.05,-9.01,0,*58
1512972441.14,37816,2.31,71608.0,-6.75,-9.19,-9.05,0,*52
1512972442.36,37817,2.31,71594.8,-6.77,-9.15,-8.67,0,*58
1512972443.59,37818,2.31,71600.5,-6.75,-8.93,-8.45,0,*5A
1512972444.84,37819,2.31,71586.3,-6.75,-8.51,-8.33,0,*54
1512972446.12,37820,2.31,71596.3,-6.75,-8.11,-7.95,0,*59
1512972447.37,37821,2.31,71596.8,-6.73,-7.95,-7.95,0,*5D
1512972448.59,37822,2.31,71606.8,-6.73,-7.83,-7.91,0,*5D
1512972449.82,37823,2.31,71610.0,-6.73,-7.91,-7.83,0,*5C
1512972451.03,37824,2.31,71610.3,-6.73,-7.83,-7.83,0,*58
1512972452.29,37825,2.31,71606.0,-6.75,-7.73,-7.83,0,*50
1512972453.53,37826,2.31,71592.0,-6.75,-7.87,-7.95,0,*5F
1512972454.81,37827,2.31,71560.5,-6.75,-7.99,-7.95,0,*51
1512972456.05,37828,2.31,71546.5,-6.73,-7.91,-7.95,0,*50
1512972457.27,37829,2.31,71540.0,-6.73,-7.83,-7.95,0,*52
1512972458.5,37830,2.31,71544.8,-6.73,-7.83,-7.95,0,*5A
1512972459.77,37831,2.31,71554.0,-6.75,-7.95,-7.95,0,*5A
1512972461.04,37832,2.31,71566.8,-6.75,-7.95,-7.99,0,*55
1512972462.33,37833,2.31,71566.8,-6.75,-7.95,-8.07,0,*5C
1512972463.58,37834,2.31,71562.8,-6.73,-8.03,-8.07,0,*5D
1512972464.82,37835,2.31,71562.0,-6.73,-8.03,-8.03,0,*58
1512972466.08,37836,2.31,71568.3,-6.69,-8.07,-8.07,0,*50
1512972467.28,37837,2.31,71578.8,-6.73,-8.21,-8.21,0,*5A
1512972468.48,37838,2.31,71598.5,-6.73,-8.21,-8.17,0,*50
1512972469.73,37839,2.31,71602.0,-6.75,-8.33,-8.11,0,*52
1512972470.95,37840,2.31,71582.3,-6.69,-8.21,-7.95,0,*51
1512972472.2,37841,2.31,71578.5,-6.73,-8.07,-7.95,0,*5F
1512972473.45,37842,2.31,71562.8,-6.73,-8.07,-8.03,0,*5C
1512972474.71,37843,2.31,71538.5,-6.73,-8.07,-8.07,0,*59
1512972475.96,37844,2.31,71558.0,-6.73,-7.91,-7.91,0,*5E
1512972477.19,37845,2.31,71582.3,-6.73,-7.77,-7.83,0,*54
1512972478.44,37846,2.31,71582.8,-6.73,-7.77,-7.77,0,*5C
1512972479.65,37847,2.31,71598.8,-6.73,-7.83,-7.83,0,*5D
1512972480.93,37848,2.31,71596.3,-6.75,-7.73,-7.73,0,*54
1512972482.21,37849,2.31,71582.8,-6.75,-7.69,-7.69,0,*55
1512972483.46,37850,2.31,71582.5,-6.73,-7.69,-7.77,0,*54
1512972484.71,37851,2.31,71574.5,-6.73,-7.69,-7.69,0,*5A
1512972485.96,37852,2.31,71552.8,-6.73,-7.77,-7.69,0,*56
1512972487.2,37853,2.31,71576.5,-6.69,-7.69,-7.69,0,*53
1512972488.43,37854,2.31,71584.0,-6.73,-7.77,-7.83,0,*54
1512972489.68,37855,2.31,71582.8,-6.73,-7.91,-7.91,0,*5E
1512972490.93,37856,2.31,71588.3,-6.73,-7.91,-7.91,0,*5D
1512972492.17,37857,2.31,71592.8,-6.73,-7.91,-8.03,0,*58
1512972493.43,37858,2.31,71604.3,-6.73,-7.95,-8.07,0,*57
1512972494.65,37859,2.31,71608.0,-6.73,-8.03,-8.17,0,*57
1512972495.87,37860,2.31,71590.3,-6.73,-8.03,-8.29,0,*50
1512972497.07,37861,2.31,71606.8,-6.73,-8.17,-8.33,0,*5F
1512972498.27,37862,2.31,71612.5,-6.69,-8.29,-8.45,0,*5B
1512972499.49,37863,2.31,71610.3,-6.73,-8.29,-8.51,0,*54
1512972500.71,37864,2.31,71608.5,-6.73,-8.33,-8.51,0,*58
1512972501.93,37865,2.31,71632.5,-6.69,-8.33,-8.51,0,*52
1512972503.12,37866,2.31,71620.0,-6.73,-8.33,-8.45,0,*5F
1512972504.33,37867,2.31,71634.0,-6.73,-8.41,-8.45,0,*5B
1512972505.55,37868,2.31,71582.8,-6.69,-8.41,-8.51,0,*5A
1512972506.75,37869,2.31,71594.3,-6.73,-8.33,-8.45,0,*50
1512972507.95,37870,2.31,71600.8,-6.73,-8.33,-8.45,0,*58
1512972509.14,37871,2.31,71584.3,-6.69,-8.33,-8.41,0,*56
1512972510.36,37872,2.31,71598.3,-6.73,-8.33,-8.51,0,*5F
1512972511.58,37873,2.31,71596.3,-6.69,-8.51,-8.59,0,*59
1512972512.78,37874,2.31,71610.0,-6.73,-8.63,-8.59,0,*54
1512972513.99,37875,2.31,71618.8,-6.73,-8.71,-8.59,0,*56
1512972515.18,37876,2.31,71630.0,-6.69,-8.71,-8.33,0,*52
1512972516.38,37877,2.31,71598.8,-6.69,-8.71,-8.33,0,*53
1512972517.58,37878,2.31,71608.3,-6.69,-8.63,-8.21,0,*5C